AAL1817 KSAN-KPHX

Flight info

Callsign AAL1817
Flight time N/A
Altitude 27000
Route ZZOOO4 HOGGZ HYDRR1
Aircraft A320/M-SDE3FGHIRWY/LB1

Departure

Time 2026-04-24 00:16
Airport San Diego International Airport (KSAN)

Arrival

Time N/A
Airport Phoenix Sky Harbor International Airport (KPHX)
Time Latitude Longitude Altitude Speed Heading
2026-04-23 23:40 32.73338 -117.20188 23 ft 0 kts 83°
2026-04-24 00:00 32.73336 -117.20199 23 ft 4 kts 83°
2026-04-24 00:01 32.73332 -117.20231 23 ft 4 kts 75°
2026-04-24 00:01 32.73323 -117.20257 24 ft 4 kts 30°
2026-04-24 00:01 32.73317 -117.20262 26 ft 4 kts 345°
2026-04-24 00:01 32.73343 -117.20272 24 ft 4 kts 345°
2026-04-24 00:02 32.73361 -117.20276 23 ft 0 kts 350°
2026-04-24 00:09 32.73378 -117.20278 23 ft 6 kts 355°
2026-04-24 00:09 32.73441 -117.20262 23 ft 12 kts 18°
2026-04-24 00:09 32.73525 -117.20228 23 ft 13 kts 31°
2026-04-24 00:09 32.73535 -117.20133 23 ft 13 kts 107°
2026-04-24 00:10 32.73509 -117.20028 23 ft 13 kts 105°
2026-04-24 00:10 32.73483 -117.19922 24 ft 13 kts 106°
2026-04-24 00:10 32.73457 -117.19813 24 ft 14 kts 106°
2026-04-24 00:10 32.73429 -117.19698 24 ft 15 kts 105°
2026-04-24 00:11 32.73397 -117.19566 24 ft 18 kts 106°
2026-04-24 00:11 32.73358 -117.19407 25 ft 23 kts 104°
2026-04-24 00:11 32.73312 -117.19215 23 ft 25 kts 106°
2026-04-24 00:11 32.73261 -117.19004 23 ft 28 kts 106°
2026-04-24 00:12 32.73213 -117.18809 23 ft 19 kts 105°
2026-04-24 00:12 32.73175 -117.18646 21 ft 22 kts 107°
2026-04-24 00:12 32.73130 -117.18463 21 ft 24 kts 106°
2026-04-24 00:12 32.73081 -117.18262 22 ft 27 kts 106°
2026-04-24 00:13 32.73034 -117.18065 21 ft 20 kts 106°
2026-04-24 00:13 32.73002 -117.17934 22 ft 16 kts 105°
2026-04-24 00:13 32.72969 -117.17809 22 ft 13 kts 109°
2026-04-24 00:13 32.72955 -117.17758 22 ft 0 kts 108°
2026-04-24 00:14 32.72953 -117.17751 22 ft 2 kts 108°
2026-04-24 00:14 32.72948 -117.17718 21 ft 7 kts 91°
2026-04-24 00:15 32.72961 -117.17647 23 ft 11 kts 71°
2026-04-24 00:15 32.72994 -117.17561 21 ft 8 kts 61°
2026-04-24 00:15 32.73021 -117.17582 21 ft 7 kts 290°
2026-04-24 00:15 32.73054 -117.17713 21 ft 38 kts 287°
2026-04-24 00:16 32.73193 -117.18294 23 ft 104 kts 285°
2026-04-24 00:16 32.73445 -117.19328 35 ft 153 kts 285°
2026-04-24 00:16 32.73739 -117.20538 626 ft 153 kts 285°
2026-04-24 00:16 32.74029 -117.21773 1305 ft 155 kts 285°
2026-04-24 00:17 32.74329 -117.23014 1964 ft 161 kts 285°
2026-04-24 00:17 32.74659 -117.24374 2298 ft 183 kts 285°
2026-04-24 00:17 32.75035 -117.25920 2650 ft 208 kts 285°
2026-04-24 00:17 32.75458 -117.27659 3140 ft 228 kts 285°
2026-04-24 00:18 32.75905 -117.29502 3916 ft 235 kts 285°
2026-04-24 00:18 32.76363 -117.31396 4792 ft 241 kts 285°
2026-04-24 00:18 32.76473 -117.33363 5578 ft 247 kts 255°
2026-04-24 00:18 32.75563 -117.35091 6456 ft 254 kts 219°
2026-04-24 00:19 32.73918 -117.35869 7301 ft 263 kts 184°
2026-04-24 00:19 32.72130 -117.35371 8175 ft 272 kts 151°
2026-04-24 00:19 32.70637 -117.33974 9067 ft 277 kts 137°
2026-04-24 00:19 32.69322 -117.32281 9928 ft 281 kts 133°
2026-04-24 00:20 32.68030 -117.30516 10686 ft 286 kts 134°
2026-04-24 00:20 32.66686 -117.28757 11433 ft 290 kts 136°
2026-04-24 00:20 32.65276 -117.27029 12188 ft 293 kts 138°
2026-04-24 00:20 32.63958 -117.25148 12923 ft 301 kts 123°
2026-04-24 00:21 32.63079 -117.22847 13490 ft 317 kts 107°
2026-04-24 00:21 32.62714 -117.20170 13710 ft 340 kts 96°
2026-04-24 00:21 32.62459 -117.17280 13899 ft 363 kts 96°
2026-04-24 00:21 32.62191 -117.14204 14026 ft 386 kts 96°
2026-04-24 00:22 32.62171 -117.10970 14381 ft 399 kts 83°
2026-04-24 00:22 32.62766 -117.07745 14933 ft 403 kts 69°
2026-04-24 00:22 32.63756 -117.04654 15518 ft 406 kts 67°
2026-04-24 00:22 32.64785 -117.01505 16115 ft 410 kts 67°
2026-04-24 00:23 32.65815 -116.98327 16708 ft 415 kts 69°
2026-04-24 00:23 32.66529 -116.94985 17310 ft 421 kts 80°
2026-04-24 00:23 32.66748 -116.91497 17911 ft 427 kts 88°
2026-04-24 00:23 32.66819 -116.87960 18510 ft 431 kts 88°
2026-04-24 00:24 32.66895 -116.84387 19039 ft 436 kts 88°
2026-04-24 00:24 32.66976 -116.80767 19576 ft 441 kts 88°
2026-04-24 00:24 32.67061 -116.77109 20149 ft 446 kts 88°
2026-04-24 00:24 32.67132 -116.73415 20703 ft 450 kts 89°
2026-04-24 00:25 32.67132 -116.69722 21225 ft 454 kts 90°
2026-04-24 00:25 32.67073 -116.65955 21717 ft 458 kts 91°
2026-04-24 00:25 32.66978 -116.62158 22223 ft 462 kts 92°
2026-04-24 00:25 32.66874 -116.58330 22708 ft 466 kts 92°
2026-04-24 00:26 32.66779 -116.54464 23163 ft 470 kts 91°
2026-04-24 00:26 32.66698 -116.50569 23594 ft 474 kts 91°
2026-04-24 00:26 32.66628 -116.46634 23966 ft 477 kts 91°
2026-04-24 00:26 32.66602 -116.42681 24345 ft 481 kts 87°
2026-04-24 00:27 32.66914 -116.38712 24713 ft 484 kts 83°
2026-04-24 00:27 32.67291 -116.34743 25069 ft 487 kts 83°
2026-04-24 00:27 32.67665 -116.30735 25439 ft 489 kts 83°
2026-04-24 00:27 32.68033 -116.26707 25796 ft 492 kts 83°
2026-04-24 00:28 32.68398 -116.22657 26169 ft 494 kts 83°
2026-04-24 00:28 32.68761 -116.18590 26559 ft 497 kts 83°
2026-04-24 00:28 32.69123 -116.14504 26878 ft 499 kts 83°
2026-04-24 00:28 32.69482 -116.10449 26946 ft 501 kts 83°
2026-04-24 00:29 32.69845 -116.06325 26972 ft 503 kts 83°
2026-04-24 00:29 32.70206 -116.02205 26961 ft 503 kts 83°
2026-04-24 00:29 32.70577 -115.98065 26944 ft 503 kts 83°
2026-04-24 00:29 32.70958 -115.93933 26950 ft 504 kts 83°
2026-04-24 00:30 32.71349 -115.89801 26927 ft 503 kts 83°
2026-04-24 00:30 32.71740 -115.85671 26919 ft 503 kts 83°
2026-04-24 00:30 32.72128 -115.81549 26913 ft 503 kts 83°
2026-04-24 00:30 32.72507 -115.77416 26907 ft 503 kts 83°
2026-04-24 00:31 32.72882 -115.73273 26902 ft 503 kts 83°
2026-04-24 00:31 32.73253 -115.69139 26873 ft 503 kts 83°
2026-04-24 00:31 32.73624 -115.64993 26870 ft 504 kts 83°
2026-04-24 00:31 32.73996 -115.60851 26857 ft 505 kts 83°
2026-04-24 00:32 32.74367 -115.56713 26857 ft 505 kts 83°
2026-04-24 00:32 32.74736 -115.52552 26862 ft 506 kts 83°
2026-04-24 00:32 32.75053 -115.48392 26863 ft 506 kts 85°
2026-04-24 00:32 32.75244 -115.44220 26865 ft 506 kts 88°
2026-04-24 00:33 32.75332 -115.40043 26868 ft 506 kts 89°
2026-04-24 00:33 32.75364 -115.35855 26870 ft 506 kts 90°
2026-04-24 00:33 32.75386 -115.31732 26884 ft 506 kts 90°
2026-04-24 00:33 32.75426 -115.27555 26898 ft 505 kts 89°
2026-04-24 00:34 32.75494 -115.23381 26898 ft 505 kts 89°
2026-04-24 00:34 32.75586 -115.19199 26897 ft 505 kts 88°
2026-04-24 00:34 32.75692 -115.15033 26897 ft 505 kts 88°
2026-04-24 00:34 32.75802 -115.10863 26896 ft 505 kts 88°
2026-04-24 00:35 32.75910 -115.06694 26892 ft 505 kts 88°
2026-04-24 00:35 32.76008 -115.02524 26895 ft 505 kts 89°
2026-04-24 00:35 32.76097 -114.98345 26894 ft 505 kts 89°
2026-04-24 00:35 32.76181 -114.94174 26892 ft 505 kts 89°
2026-04-24 00:36 32.76235 -114.91408 26889 ft 505 kts 89°
2026-04-24 00:36 32.76315 -114.87236 26887 ft 505 kts 89°
2026-04-24 00:36 32.76419 -114.81703 26887 ft 505 kts 89°
2026-04-24 00:36 32.76494 -114.77530 26887 ft 505 kts 89°
2026-04-24 00:37 32.76546 -114.74707 26886 ft 505 kts 89°
2026-04-24 00:37 32.76647 -114.69183 26885 ft 505 kts 89°
2026-04-24 00:37 32.76723 -114.65009 26884 ft 505 kts 89°
2026-04-24 00:37 32.76775 -114.62177 26883 ft 505 kts 89°
2026-04-24 00:38 32.76852 -114.58007 26884 ft 505 kts 89°
2026-04-24 00:38 32.76921 -114.53886 26883 ft 505 kts 89°
2026-04-24 00:38 32.76980 -114.49723 26883 ft 505 kts 89°
2026-04-24 00:38 32.77031 -114.45540 26884 ft 505 kts 89°
2026-04-24 00:39 32.77078 -114.41367 26883 ft 505 kts 89°
2026-04-24 00:39 32.77125 -114.37193 26897 ft 505 kts 89°
2026-04-24 00:39 32.77175 -114.33019 26870 ft 505 kts 89°
2026-04-24 00:39 32.77230 -114.28839 26873 ft 506 kts 89°
2026-04-24 00:40 32.77285 -114.24666 26875 ft 506 kts 89°
2026-04-24 00:40 32.77339 -114.20488 26876 ft 506 kts 89°
2026-04-24 00:40 32.77389 -114.16308 26875 ft 506 kts 89°
2026-04-24 00:40 32.77436 -114.12132 26703 ft 505 kts 89°
2026-04-24 00:41 32.77490 -114.07947 25597 ft 510 kts 87°
2026-04-24 00:41 32.77853 -114.03789 25119 ft 502 kts 81°
2026-04-24 00:41 32.78316 -113.99686 24906 ft 500 kts 82°
2026-04-24 00:41 32.78764 -113.95587 24874 ft 499 kts 82°
2026-04-24 00:42 32.79204 -113.91493 24892 ft 499 kts 82°
2026-04-24 00:42 32.79642 -113.87399 24889 ft 499 kts 82°
2026-04-24 00:42 32.80076 -113.83359 24889 ft 499 kts 82°
2026-04-24 00:42 32.80517 -113.79263 24882 ft 500 kts 82°
2026-04-24 00:43 32.80976 -113.75161 24891 ft 499 kts 79°
2026-04-24 00:43 32.81823 -113.71231 24875 ft 479 kts 68°
2026-04-24 00:43 32.83144 -113.67695 24807 ft 460 kts 58°
2026-04-24 00:43 32.84871 -113.64551 24486 ft 449 kts 47°
2026-04-24 00:44 32.86907 -113.61769 24233 ft 445 kts 43°
2026-04-24 00:44 32.88970 -113.59025 23974 ft 443 kts 43°
2026-04-24 00:44 32.91011 -113.56289 23718 ft 441 kts 44°
2026-04-24 00:44 32.93032 -113.53562 23463 ft 439 kts 44°
2026-04-24 00:45 32.95044 -113.50835 23177 ft 437 kts 44°
2026-04-24 00:45 32.97046 -113.48123 22920 ft 435 kts 44°
2026-04-24 00:45 32.99044 -113.45420 22672 ft 433 kts 44°
2026-04-24 00:45 33.01007 -113.42765 22428 ft 431 kts 44°
2026-04-24 00:46 33.02982 -113.40091 22168 ft 428 kts 44°
2026-04-24 00:46 33.04945 -113.37435 21928 ft 426 kts 44°
2026-04-24 00:46 33.06906 -113.34787 21655 ft 424 kts 44°
2026-04-24 00:46 33.08853 -113.32159 21371 ft 422 kts 44°
2026-04-24 00:47 33.10791 -113.29544 21097 ft 420 kts 44°
2026-04-24 00:47 33.12716 -113.26943 20825 ft 418 kts 44°
2026-04-24 00:47 33.14633 -113.24350 20555 ft 416 kts 44°
2026-04-24 00:47 33.16540 -113.21768 20279 ft 413 kts 44°
2026-04-24 00:48 33.18436 -113.19197 20007 ft 412 kts 44°
2026-04-24 00:48 33.20324 -113.16632 19741 ft 410 kts 44°
2026-04-24 00:48 33.22200 -113.14078 19471 ft 408 kts 44°
2026-04-24 00:48 33.24068 -113.11540 19204 ft 406 kts 44°
2026-04-24 00:49 33.25741 -113.08832 18954 ft 404 kts 57°
2026-04-24 00:49 33.26893 -113.05808 18742 ft 398 kts 69°
2026-04-24 00:49 33.27492 -113.02596 18482 ft 394 kts 83°
2026-04-24 00:49 33.27623 -112.99336 18228 ft 392 kts 88°
2026-04-24 00:50 33.27703 -112.96085 17916 ft 390 kts 88°
2026-04-24 00:50 33.27786 -112.92860 17636 ft 388 kts 88°
2026-04-24 00:50 33.27866 -112.89638 17463 ft 387 kts 88°
2026-04-24 00:50 33.27943 -112.86425 17209 ft 385 kts 88°
2026-04-24 00:51 33.28019 -112.83301 17020 ft 375 kts 88°
2026-04-24 00:51 33.28147 -112.80184 16764 ft 368 kts 85°
2026-04-24 00:51 33.28384 -112.77156 16425 ft 364 kts 82°
2026-04-24 00:51 33.28683 -112.74164 16070 ft 362 kts 81°
2026-04-24 00:52 33.29001 -112.71230 15724 ft 359 kts 81°
2026-04-24 00:52 33.29322 -112.68275 15384 ft 357 kts 82°
2026-04-24 00:52 33.29632 -112.65305 15030 ft 355 kts 82°
2026-04-24 00:52 33.29919 -112.62419 14690 ft 353 kts 82°
2026-04-24 00:53 33.30193 -112.59514 14348 ft 351 kts 83°
2026-04-24 00:53 33.30458 -112.56615 14007 ft 350 kts 83°
2026-04-24 00:53 33.30718 -112.53730 13661 ft 348 kts 83°
2026-04-24 00:53 33.30977 -112.50865 13301 ft 346 kts 83°
2026-04-24 00:54 33.31238 -112.48018 12964 ft 343 kts 83°
2026-04-24 00:54 33.31498 -112.45199 12638 ft 341 kts 83°
2026-04-24 00:54 33.31755 -112.42392 12306 ft 338 kts 83°
2026-04-24 00:54 33.32007 -112.39613 11981 ft 335 kts 83°
2026-04-24 00:55 33.32258 -112.36852 11657 ft 333 kts 83°
2026-04-24 00:55 33.32509 -112.34111 11338 ft 331 kts 83°
2026-04-24 00:55 33.32760 -112.31388 11016 ft 328 kts 83°
2026-04-24 00:55 33.33010 -112.28680 10696 ft 326 kts 83°
2026-04-24 00:56 33.33256 -112.25993 10372 ft 324 kts 83°
2026-04-24 00:56 33.33499 -112.23321 10065 ft 322 kts 83°
2026-04-24 00:56 33.33738 -112.20669 9748 ft 320 kts 83°
2026-04-24 00:56 33.33974 -112.18030 9419 ft 317 kts 83°
2026-04-24 00:57 33.34203 -112.15449 9316 ft 307 kts 83°
2026-04-24 00:57 33.34426 -112.12953 9193 ft 298 kts 83°
2026-04-24 00:57 33.34750 -112.08166 8881 ft 278 kts 91°
2026-04-24 00:58 33.34721 -112.05890 8575 ft 269 kts 91°
2026-04-24 00:58 33.34692 -112.03677 8285 ft 264 kts 91°
2026-04-24 00:58 33.34662 -112.01493 8008 ft 261 kts 91°
2026-04-24 00:58 33.34632 -111.99356 7738 ft 259 kts 91°
2026-04-24 00:59 33.34604 -111.97217 7466 ft 256 kts 91°
2026-04-24 00:59 33.34576 -111.95098 7196 ft 254 kts 91°
2026-04-24 00:59 33.34552 -111.93006 7026 ft 246 kts 90°
2026-04-24 00:59 33.34573 -111.90993 7030 ft 241 kts 89°
2026-04-24 01:00 33.34621 -111.88986 7027 ft 242 kts 89°
2026-04-24 01:00 33.34679 -111.86975 7036 ft 242 kts 88°
2026-04-24 01:00 33.34738 -111.84967 7037 ft 241 kts 88°
2026-04-24 01:00 33.34797 -111.82958 7028 ft 241 kts 88°
2026-04-24 01:01 33.34858 -111.80947 7040 ft 242 kts 88°
2026-04-24 01:01 33.34990 -111.78943 7039 ft 242 kts 79°
2026-04-24 01:01 33.35620 -111.77135 6854 ft 238 kts 50°
2026-04-24 01:01 33.36886 -111.75949 6494 ft 230 kts 16°
2026-04-24 01:02 33.38427 -111.75693 5971 ft 224 kts 353°
2026-04-24 01:02 33.39981 -111.75831 5474 ft 224 kts 350°
2026-04-24 01:02 33.41450 -111.76283 5005 ft 214 kts 323°
2026-04-24 01:02 33.42584 -111.77399 4511 ft 210 kts 311°
2026-04-24 01:03 33.43475 -111.78694 4286 ft 194 kts 296°
2026-04-24 01:03 33.43976 -111.80152 3953 ft 186 kts 280°
2026-04-24 01:03 33.44102 -111.81638 3793 ft 170 kts 267°
2026-04-24 01:03 33.44008 -111.82994 3670 ft 159 kts 262°
2026-04-24 01:04 33.43920 -111.84280 3444 ft 151 kts 266°
2026-04-24 01:04 33.43862 -111.85658 3191 ft 185 kts 265°
2026-04-24 01:04 33.43790 -111.87232 2889 ft 183 kts 265°
2026-04-24 01:04 33.43818 -111.88658 2645 ft 158 kts 276°
2026-04-24 01:05 33.43987 -111.89872 2542 ft 138 kts 278°
2026-04-24 01:05 33.44069 -111.90985 2291 ft 133 kts 269°
2026-04-24 01:05 33.44090 -111.92068 2099 ft 126 kts 269°
2026-04-24 01:05 33.44157 -111.93078 1962 ft 117 kts 274°
2026-04-24 01:06 33.44241 -111.94063 1737 ft 136 kts 274°
2026-04-24 01:06 33.44202 -111.95258 1725 ft 154 kts 262°
2026-04-24 01:06 33.44071 -111.96560 1585 ft 150 kts 269°
2026-04-24 01:06 33.44074 -111.97800 1405 ft 153 kts 270°
2026-04-24 01:07 33.44081 -111.99057 1207 ft 154 kts 271°